This is the latest recevied weather packets stored in our database for station/object KG5WBN. If no packets are shown the sender has not sent any weather packets the latest 10 day(s).
| Time | Temp. | Humidity | Pressure | Rain* | Wind** | Luminosity | Snow |
|---|---|---|---|---|---|---|---|
| 1787931179 | 31.11° C | 51% | 1015.9 hPa | 0 mm | - | 261 W/m² | - |
| 1787930879 | 30.56° C | 51% | 1015.9 hPa | 0 mm | - | 252 W/m² | - |
| 1787930573 | 31.67° C | 50% | 1016.3 hPa | 0 mm | - | 246 W/m² | - |
| 1787930268 | 31.11° C | 52% | 1015.9 hPa | 0 mm | - | 234 W/m² | - |
| 1787929967 | 31.11° C | 50% | 1016.3 hPa | 0 mm | - | 222 W/m² | - |
| 1787929661 | 31.11° C | 51% | 1015.9 hPa | 0 mm | - | 210 W/m² | - |
| 1787929356 | 30° C | 52% | 1015.6 hPa | 0 mm | - | 206 W/m² | - |
| 1787929053 | 30.56° C | 51% | 1015.6 hPa | 0 mm | - | 200 W/m² | - |
| 1787928749 | 30° C | 52% | 1015.6 hPa | 0 mm | - | 190 W/m² | - |
| 1787928448 | 30° C | 52% | 1015.6 hPa | 0 mm | - | 182 W/m² | - |
| 1787928147 | 30.56° C | 52% | 1015.6 hPa | 0 mm | - | 173 W/m² | - |
| 1787927847 | 30.56° C | 52% | 1015.6 hPa | 0 mm | - | 102 W/m² | - |
| 1787927541 | 30° C | 53% | 1015.6 hPa | 0 mm | - | 153 W/m² | - |
| 1787927236 | 30° C | 63% | 1015.2 hPa | 0 mm | - | 141 W/m² | - |
| 1787926932 | 30° C | 63% | 1015.9 hPa | 0 mm | - | 136 W/m² | - |
| 1787926626 | 30° C | 63% | 1015.6 hPa | 0 mm | - | 127 W/m² | - |
| 1787926325 | 29.44° C | 64% | 1015.9 hPa | 0 mm | - | 123 W/m² | - |
| 1787926020 | 29.44° C | 65% | 1015.9 hPa | 0 mm | - | 113 W/m² | - |
| 1787925720 | 29.44° C | 65% | 1015.6 hPa | 0 mm | - | 105 W/m² | - |
| 1787925420 | 28.89° C | 70% | 1015.6 hPa | 0 mm | - | 92 W/m² | - |
| 1787925119 | 28.33° C | 74% | 1015.6 hPa | 0 mm | - | 61 W/m² | - |
| 1787924818 | 28.33° C | 74% | 1015.6 hPa | 0 mm | - | 56 W/m² | - |
| 1787924513 | 27.78° C | 75% | 1015.9 hPa | 0 mm | - | 52 W/m² | - |
| 1787924208 | 27.78° C | 75% | 1015.9 hPa | 0 mm | - | 52 W/m² | - |
| 1787923903 | 27.78° C | 76% | 1015.9 hPa | 0 mm | - | 46 W/m² | - |
* Rain latest hour (hover to see other rain measurements)
** Current wind speed in m/s (hover to see current wind gust speed)